| time (UTC) | temp F | wind direction | speed knots | gust knots | rain 1hr in | rain 24hr in | rain mn in | humidity % | barometer mb |
| 20260505221548 | 87 | 180 | 5.2 | 8.7 | 0.00 | 0.00 | 0.00 | 55 | 1001.7 |
| 20260505220047 | 86 | 264 | 5.2 | 12.2 | 0.00 | 0.00 | 0.00 | 55 | 1001.7 |
| 20260505214545 | 86 | 176 | 5.2 | 12.2 | 0.00 | 0.00 | 0.00 | 59 | 1002.1 |
| 20260505213052 | 86 | 225 | 9.6 | 14.8 | 0.00 | 0.00 | 0.00 | 60 | 1002.1 |
| 20260505211544 | 86 | 172 | 4.3 | 13.9 | 0.00 | 0.00 | 0.00 | 63 | 1002.2 |
| 20260505210039 | 85 | 188 | 8.7 | 12.2 | 0.00 | 0.00 | 0.00 | 65 | 1002.3 |
| 20260505204539 | 85 | 164 | 7.0 | 14.8 | 0.00 | 0.00 | 0.00 | 66 | 1002.3 |
| 20260505203036 | 84 | 202 | 9.6 | 14.8 | 0.00 | 0.00 | 0.00 | 68 | 1002.7 |
| 20260505201538 | 83 | 199 | 8.7 | 17.4 | 0.00 | 0.00 | 0.00 | 68 | 1002.8 |
| 20260505200036 | 83 | 161 | 8.7 | 20.9 | 0.00 | 0.00 | 0.00 | 67 | 1002.8 |
| 20260505194534 | 83 | 199 | 9.6 | 19.1 | 0.00 | 0.00 | 0.00 | 68 | 1003.0 |
| 20260505193033 | 84 | 165 | 12.2 | 18.2 | 0.00 | 0.00 | 0.00 | 66 | 1002.9 |
| 20260505191533 | 83 | 186 | 8.7 | 18.2 | 0.00 | 0.00 | 0.00 | 69 | 1002.6 |
| 20260505190029 | 81 | 202 | 11.3 | 18.2 | 0.00 | 0.00 | 0.00 | 68 | 1002.8 |
| 20260505184528 | 81 | 171 | 10.4 | 18.2 | 0.00 | 0.00 | 0.00 | 68 | 1002.9 |
| 20260505183034 | 81 | 209 | 12.2 | 20.9 | 0.00 | 0.00 | 0.00 | 68 | 1003.0 |
| 20260505181526 | 81 | 194 | 12.2 | 22.6 | 0.00 | 0.00 | 0.00 | 69 | 1003.2 |
| 20260505180042 | 82 | 217 | 10.4 | 21.7 | 0.00 | 0.00 | 0.00 | 69 | 1002.8 |
| 20260505174522 | 80 | 217 | 11.3 | 23.5 | 0.00 | 0.00 | 0.00 | 72 | 1002.9 |
| 20260505173019 | 79 | 171 | 13.9 | 21.7 | 0.00 | 0.00 | 0.00 | 74 | 1002.8 |
| 20260505171515 | 77 | 167 | 10.4 | 19.1 | 0.00 | 0.00 | 0.00 | 77 | 1003.4 |
| 20260505170015 | 76 | 168 | 9.6 | 18.2 | 0.00 | 0.00 | 0.00 | 78 | 1002.8 |
| 20260505164514 | 76 | 200 | 11.3 | 20.9 | 0.00 | 0.00 | 0.00 | 78 | 1002.7 |
| 20260505163013 | 76 | 190 | 16.5 | 25.2 | 0.00 | 0.00 | 0.00 | 77 | 1003.6 |
| 20260505161513 | 77 | 200 | 14.8 | 23.5 | 0.00 | 0.00 | 0.00 | 77 | 1002.9 |
| 20260505153010 | 75 | 189 | 12.2 | 23.5 | 0.00 | 0.00 | 0.00 | 80 | 1003.0 |
| 20260505151503 | 74 | 172 | 14.8 | 21.7 | 0.00 | 0.00 | 0.00 | 80 | 1003.0 |
| 20260505124551 | 70 | 173 | 9.6 | 21.7 | 0.00 | 0.00 | 0.00 | 85 | 1002.6 |
| 20260505123053 | 70 | 192 | 12.2 | 19.1 | 0.00 | 0.00 | 0.00 | 86 | 1002.5 |
| 20260505121549 | 70 | 173 | 12.2 | 18.2 | 0.00 | 0.00 | 0.00 | 85 | 1002.5 |
| 20260505120051 | 70 | 175 | 11.3 | 19.1 | 0.00 | 0.00 | 0.00 | 85 | 1002.4 |
| 20260505114550 | 70 | 180 | 12.2 | 20.0 | 0.00 | 0.00 | 0.00 | 85 | 1002.3 |
| 20260505113051 | 70 | 180 | 12.2 | 17.4 | 0.00 | 0.00 | 0.00 | 85 | 1002.3 |
| 20260505111545 | 70 | 198 | 11.3 | 19.1 | 0.00 | 0.00 | 0.00 | 84 | 1002.2 |
| 20260505101559 | 70 | 157 | 11.3 | 20.9 | 0.00 | 0.00 | 0.00 | 85 | 1002.2 |
| 20260505100057 | 70 | 198 | 11.3 | 19.1 | 0.00 | 0.00 | 0.00 | 85 | 1002.3 |
| 20260505094539 | 70 | 210 | 13.9 | 20.0 | 0.00 | 0.00 | 0.00 | 85 | 1002.3 |
| 20260505093038 | 70 | 198 | 13.9 | 21.7 | 0.00 | 0.00 | 0.00 | 85 | 1002.6 |
| 20260505091536 | 70 | 185 | 13.0 | 23.5 | 0.00 | 0.00 | 0.00 | 85 | 1002.6 |
| 20260505090035 | 69 | 174 | 11.3 | 20.9 | 0.00 | 0.00 | 0.00 | 85 | 1002.6 |
| 20260505084535 | 69 | 171 | 11.3 | 22.6 | 0.00 | 0.00 | 0.00 | 85 | 1002.7 |
| 20260505083032 | 70 | 159 | 13.9 | 20.0 | 0.00 | 0.00 | 0.00 | 84 | 1002.6 |
| 20260505081530 | 70 | 197 | 13.0 | 21.7 | 0.00 | 0.00 | 0.00 | 83 | 1002.8 |
| 20260505080032 | 70 | 184 | 13.9 | 25.2 | 0.00 | 0.00 | 0.00 | 83 | 1003.0 |
| 20260505074525 | 70 | 211 | 13.0 | 26.1 | 0.00 | 0.00 | 0.00 | 82 | 1003.2 |
| 20260505073033 | 70 | 166 | 13.9 | 23.5 | 0.00 | 0.00 | 0.00 | 81 | 1003.3 |
| 20260505071520 | 71 | 201 | 11.3 | 24.3 | 0.00 | 0.00 | 0.00 | 81 | 1003.5 |
| 20260505070018 | 71 | 220 | 13.9 | 25.2 | 0.00 | 0.00 | 0.00 | 80 | 1003.8 |
| 20260505064519 | 71 | 179 | 8.7 | 21.7 | 0.00 | 0.00 | 0.00 | 79 | 1003.7 |
| 20260505063015 | 71 | 185 | 13.0 | 23.5 | 0.00 | 0.00 | 0.00 | 79 | 1004.0 |
| 20260505061521 | 71 | 174 | 12.2 | 20.9 | 0.00 | 0.00 | 0.00 | 78 | 1003.9 |
| 20260505060011 | 71 | 159 | 13.0 | 19.1 | 0.00 | 0.00 | 0.00 | 77 | 1004.0 |
| 20260505054510 | 71 | 162 | 12.2 | 23.5 | 0.00 | 0.00 | 0.00 | 77 | 1004.2 |
| 20260505053019 | 71 | 184 | 11.3 | 18.2 | 0.00 | 0.00 | 0.00 | 76 | 1004.3 |
| 20260505051517 | 71 | 148 | 12.2 | 19.1 | 0.00 | 0.00 | 0.00 | 75 | 1004.4 |
| 20260505041508 | 71 | 171 | 13.0 | 20.0 | 0.00 | 0.00 | 0.00 | 74 | 1004.6 |
| 20260505040004 | 71 | 182 | 13.0 | 17.4 | 0.00 | 0.00 | 0.00 | 73 | 1004.6 |
| 20260505034503 | 72 | 158 | 10.4 | 17.4 | 0.00 | 0.00 | 0.00 | 72 | 1004.8 |
| 20260505033005 | 72 | 161 | 11.3 | 22.6 | 0.00 | 0.00 | 0.00 | 72 | 1005.0 |
| 20260505031501 | 72 | 186 | 9.6 | 20.0 | 0.00 | 0.00 | 0.00 | 72 | 1005.0 |
| 20260505030002 | 72 | 167 | 7.8 | 15.6 | 0.00 | 0.00 | 0.00 | 71 | 1005.1 |
| 20260505024501 | 73 | 170 | 7.8 | 16.5 | 0.00 | 0.00 | 0.00 | 70 | 1004.9 |
| 20260505023105 | 73 | 153 | 9.6 | 16.5 | 0.00 | 0.00 | 0.00 | 69 | 1004.9 |
| 20260505021600 | 73 | 165 | 9.6 | 15.6 | 0.00 | 0.00 | 0.00 | 68 | 1004.7 |
| 20260505020059 | 74 | 158 | 8.7 | 15.6 | 0.00 | 0.00 | 0.00 | 67 | 1004.8 |
| 20260505014606 | 74 | 177 | 10.4 | 18.2 | 0.00 | 0.00 | 0.00 | 67 | 1004.5 |
| 20260505013059 | 74 | 175 | 13.0 | 22.6 | 0.00 | 0.00 | 0.00 | 66 | 1004.3 |
| 20260505011556 | 74 | 200 | 9.6 | 18.2 | 0.00 | 0.00 | 0.00 | 66 | 1004.4 |
| 20260505010115 | 75 | 157 | 9.6 | 16.5 | 0.00 | 0.00 | 0.00 | 66 | 1004.5 |
| 20260505004555 | 75 | 200 | 9.6 | 17.4 | 0.00 | 0.00 | 0.00 | 64 | 1004.6 |
| 20260505003057 | 76 | 203 | 13.9 | 21.7 | 0.00 | 0.00 | 0.00 | 62 | 1004.6 |
| 20260505001553 | 77 | 173 | 10.4 | 21.7 | 0.00 | 0.00 | 0.00 | 61 | 1004.6 |
| 20260505000051 | 77 | 184 | 14.8 | 28.7 | 0.00 | 0.00 | 0.00 | 60 | 1004.6 |
| 20260504234549 | 77 | 202 | 13.0 | 26.1 | 0.00 | 0.00 | 0.00 | 60 | 1004.7 |
| 20260504233048 | 78 | 188 | 12.2 | 27.8 | 0.00 | 0.00 | 0.00 | 58 | 1004.8 |
| 20260504231548 | 78 | 199 | 17.4 | 28.7 | 0.00 | 0.00 | 0.00 | 57 | 1005.0 |
| 20260504230048 | 79 | 182 | 18.2 | 28.7 | 0.00 | 0.00 | 0.00 | 55 | 1005.4 |
| 20260504224545 | 80 | 170 | 16.5 | 24.3 | 0.00 | 0.00 | 0.00 | 55 | 1005.2 |
| 20260504223058 | 80 | 182 | 14.8 | 24.3 | 0.00 | 0.00 | 0.00 | 54 | 1005.5 |